AirNav   Air Wisconsin pilot careers
 
 1603 users online  

UT73 Diamond 'G' Ranch Heliport
Toquerville, Utah, USA

GOING TO TOQUERVILLE?


FAA INFORMATION EFFECTIVE 04 JANUARY 2018

Location

FAA Identifier: UT73
Lat/Long: 37-14-04.9370N / 113-16-38.8130W
37-14.082283N / 113-16.646883W
37.2347047 / -113.2774481
(estimated)
Elevation: 3020 ft. / 920 m (estimated)
Variation: 14E (1990)
From city: 2 miles S of TOQUERVILLE, UT
Time zone: UTC -7 (UTC -6 during Daylight Saving Time)
Zip code: 84774

Heliport Operations

Heliport use: Private use. Permission required prior to landing
Activation date: 01/1994
Control tower: no
ARTCC: LOS ANGELES CENTER
FSS: CEDAR CITY FLIGHT SERVICE STATION
Attendance: UNATNDD
Segmented circle: no

Heliport Communications

WX AWOS-3PT at SGU (16 nm SW): 135.075 (435-634-0940)

Nearby radio navigation aids

VOR radial/distance  VOR name  Freq  Var
UTIr029/17.4ST GEORGE VOR/DME108.6012E
EHKr181/34.6ENOCH VOR/DME117.3016E

 
NDB name  Hdg/Dist  Freq  Var  ID
COLORADO CITY309/20.940313EAZC .- --.. -.-.

Heliport Services

Runway Information

Helipad H1

Dimensions: 30 x 30 ft. / 9 x 9 m
Surface: asphalt
Traffic pattern: leftleft

Heliport Ownership and Management from official FAA records

Ownership: Privately-owned
Owner: STEVE GILBERT
P O BOX 665
CEDAR CITY, UT 84720
Phone 435-586-5138
Manager: STEVE GILBERT
P O BOX 665
CEDAR CITY, UT 84720
Phone 435-586-5138

Heliport Operational Statistics

Aircraft based on the field: 1
Helicopters: 1
    

Additional Remarks

A52-H1 HAS LANDFILL 100 FT SE OF LANDING AREA.

Instrument Procedures

There are no published instrument procedures at UT73.

Some nearby airports with instrument procedures:

KSGU - St George Regional Airport (16 nm SW)
KAZC - Colorado City Municipal Airport (21 nm SE)
KCDC - Cedar City Regional Airport (29 nm N)
KKNB - Kanab Municipal Airport (38 nm E)
U55 - Panguitch Municipal Airport (56 nm NE)
 
Loc | Ops | Rwys | IFR | FBO | Links
Com | Nav | Svcs | Stats | Notes


 
Area around UT73 (Diamond 'G' Ranch Heliport)
 
Road maps at: MapQuest Bing Google
 
Aerial photo
No photo
 
Sectional chart

 
Airport distance calculator
Flying to Diamond 'G' Ranch Heliport? Find the distance to fly.

From to UT73

Sunrise and sunset
Times for 23-Jan-2018
 Local
(UTC-7)
 Zulu
(UTC)
Morning civil twilight07:1514:15
Sunrise07:4314:43
Sunset17:4700:47
Evening civil twilight18:1501:15

Current date and time
Zulu (UTC)  23-Jan-2018 18:44:59
Local (UTC-7)  23-Jan-2018 11:44:59
 
METAR
KSGU 
18nm SW 
231056Z AUTO 00000KT 10SM CLR M01/M04 A3032 RMK AO2 SLP276 T10061039 FZRANO
KAZC 
21nm SE 
231055Z AUTO 00000KT 10SM CLR M07/M09 A3030 RMK AO2
KCDC 
29nm N 
231053Z AUTO 00000KT 10SM CLR M13/M16 A3027 RMK AO2 SLP291 I1000 T11331156
TAF
KSGU 
18nm SW 
230534Z 2306/2406 VRB04KT P6SM FEW250
NOTAMs
Click for the latest NOTAMs
NOTAMs are issued by the DoD/FAA and will open in a separate window not controlled by AirNav.

 

 
 

Would you like to see your business listed on this page?

 If your business provides an interesting product or service to pilots, flight crews, aircraft, or users of the Diamond 'G' Ranch Heliport, you should consider listing it here.  To start the listing process, click on the button below
 
Add a business
 

Other Pages about Diamond 'G' Ranch Heliport

Update a link
 
Copyright © AirNav, LLC. All rights reserved. Privacy Policy  Contact